| time (UTC) | temp F | wind direction | speed MPH | gust MPH | rain 1hr in | rain 24hr in | rain mn in | humidity % | barometer mb |
| 20260507083310 | 65 | 212 | 2.0 | 6.0 | 0.00 | 0.19 | 0.01 | 73 | 1012.4 |
| 20260507082624 | 66 | 224 | 3.0 | 8.0 | 0.00 | 0.19 | 0.01 | 72 | 1012.3 |
| 20260507081721 | 67 | 181 | 1.0 | 4.0 | 0.00 | 0.19 | 0.01 | 76 | 1012.2 |
| 20260507080610 | 65 | 43 | 1.0 | 3.0 | 0.01 | 0.19 | 0.01 | 83 | 1012.2 |
| 20260507075710 | 64 | 296 | 0.0 | 3.0 | 0.01 | 0.19 | 0.01 | 84 | 1012.2 |
| 20260507074810 | 65 | 314 | 1.0 | 4.0 | 0.01 | 0.19 | 0.01 | 85 | 1012.1 |
| 20260507073911 | 64 | 23 | 2.0 | 6.0 | 0.01 | 0.19 | 0.01 | 89 | 1012.1 |
| 20260507073223 | 64 | 13 | 2.0 | 6.0 | 0.01 | 0.19 | 0.01 | 91 | 1012.0 |
| 20260507072111 | 62 | 347 | 2.0 | 5.0 | 0.01 | 0.19 | 0.01 | 96 | 1012.1 |
| 20260507071423 | 62 | 9 | 1.0 | 4.0 | 0.00 | 0.18 | 0.00 | 99 | 1012.0 |
| 20260507070520 | 61 | 265 | 0.0 | 3.0 | 0.00 | 0.18 | 0.00 | 99 | 1012.1 |
| 20260507065410 | 60 | 6 | 1.0 | 4.0 | 0.00 | 0.18 | 0.00 | 99 | 1012.1 |
| 20260507064720 | 60 | 331 | 0.0 | 4.0 | 0.00 | 0.18 | 0.00 | 99 | 1012.0 |
| 20260507063822 | 59 | 282 | 0.0 | 2.0 | 0.00 | 0.18 | 0.00 | 99 | 1011.9 |
| 20260507062710 | 58 | 27 | 0.0 | 2.0 | 0.00 | 0.18 | 0.00 | 99 | 1011.9 |
| 20260507061810 | 57 | 190 | 0.0 | 2.0 | 0.00 | 0.18 | 0.00 | 99 | 1011.8 |
| 20260507060910 | 57 | 225 | 0.0 | 1.0 | 0.00 | 0.18 | 0.00 | 99 | 1011.8 |
| 20260507060221 | 57 | 216 | 0.0 | 3.0 | 0.00 | 0.18 | 0.00 | 99 | 1011.8 |
| 20260507055324 | 57 | 231 | 0.0 | 2.0 | 0.00 | 0.18 | 0.00 | 99 | 1011.9 |
| 20260507054210 | 56 | 225 | 0.0 | 1.0 | 0.00 | 0.18 | 0.00 | 99 | 1011.7 |
| 20260507053523 | 56 | 239 | 0.0 | 2.0 | 0.00 | 0.18 | 0.00 | 99 | 1011.6 |
| 20260507052621 | 55 | 237 | 0.0 | 2.0 | 0.00 | 0.18 | 0.00 | 99 | 1011.6 |
| 20260507051723 | 55 | 249 | 0.0 | 2.0 | 0.00 | 0.18 | 0.00 | 99 | 1011.4 |
| 20260507050610 | 55 | 254 | 0.0 | 2.0 | 0.00 | 0.18 | 0.00 | 99 | 1011.4 |
| 20260507045923 | 55 | 0 | 0.0 | 0.0 | 0.00 | 0.18 | 0.00 | 99 | 1011.3 |
| 20260507045020 | 55 | 0 | 0.0 | 0.0 | 0.00 | 0.18 | 0.00 | 99 | 1011.2 |
| 20260507043910 | 55 | 0 | 0.0 | 0.0 | 0.00 | 0.18 | 0.00 | 99 | 1011.0 |
| 20260507043220 | 55 | 0 | 0.0 | 0.0 | 0.00 | 0.18 | 0.00 | 99 | 1010.8 |
| 20260507042322 | 55 | 0 | 0.0 | 0.0 | 0.00 | 0.18 | 0.00 | 99 | 1010.6 |
| 20260507041419 | 55 | 0 | 0.0 | 0.0 | 0.00 | 0.18 | 0.00 | 99 | 1010.6 |
| 20260507040310 | 55 | 85 | 0.0 | 2.0 | 0.00 | 0.18 | 0.00 | 99 | 1010.5 |
| 20260507035624 | 55 | 77 | 0.0 | 2.0 | 0.00 | 0.18 | 0.00 | 99 | 1010.6 |
| 20260507034722 | 55 | 360 | 0.0 | 3.0 | 0.00 | 0.18 | 0.00 | 99 | 1010.5 |
| 20260507033824 | 55 | 13 | 0.0 | 3.0 | 0.00 | 0.18 | 0.00 | 99 | 1010.3 |
| 20260507032921 | 56 | 28 | 0.0 | 4.0 | 0.00 | 0.18 | 0.00 | 99 | 1010.4 |
| 20260507032024 | 56 | 346 | 0.0 | 3.0 | 0.00 | 0.18 | 0.00 | 99 | 1010.4 |
| 20260507031121 | 56 | 315 | 0.0 | 2.0 | 0.00 | 0.18 | 0.00 | 99 | 1010.4 |
| 20260507030010 | 56 | 358 | 0.0 | 2.0 | 0.00 | 0.18 | 0.00 | 99 | 1010.4 |
| 20260507025321 | 56 | 21 | 0.0 | 2.0 | 0.00 | 0.18 | 0.00 | 99 | 1010.4 |
| 20260507024210 | 56 | 90 | 0.0 | 2.0 | 0.00 | 0.18 | 0.00 | 99 | 1010.4 |
| 20260507023520 | 56 | 42 | 0.0 | 3.0 | 0.00 | 0.18 | 0.00 | 99 | 1010.5 |
| 20260507022623 | 56 | 14 | 2.0 | 4.0 | 0.00 | 0.18 | 0.00 | 99 | 1010.4 |
| 20260507021510 | 56 | 1 | 2.0 | 5.0 | 0.00 | 0.18 | 0.00 | 99 | 1010.4 |
| 20260507020610 | 56 | 341 | 2.0 | 6.0 | 0.00 | 0.18 | 0.00 | 99 | 1010.5 |
| 20260507015710 | 56 | 13 | 1.0 | 6.0 | 0.00 | 0.18 | 0.00 | 99 | 1010.5 |
| 20260507014810 | 56 | 14 | 2.0 | 4.0 | 0.00 | 0.18 | 0.00 | 99 | 1010.3 |
| 20260507014124 | 56 | 12 | 2.0 | 5.0 | 0.00 | 0.18 | 0.00 | 99 | 1010.2 |
| 20260507013222 | 56 | 339 | 0.0 | 3.0 | 0.00 | 0.18 | 0.00 | 99 | 1010.4 |
| 20260507012110 | 56 | 8 | 1.0 | 3.0 | 0.00 | 0.18 | 0.00 | 99 | 1010.3 |
| 20260507010524 | 55 | 3 | 0.0 | 3.0 | 0.00 | 0.18 | 0.00 | 99 | 1010.3 |
| 20260507005410 | 55 | 3 | 1.0 | 4.0 | 0.00 | 0.18 | 0.00 | 99 | 1010.4 |
| 20260507004723 | 55 | 10 | 2.0 | 4.0 | 0.00 | 0.18 | 0.00 | 99 | 1010.2 |
| 20260507003610 | 55 | 1 | 2.0 | 4.0 | 0.00 | 0.18 | 0.00 | 99 | 1010.2 |
| 20260507002710 | 56 | 21 | 1.0 | 4.0 | 0.00 | 0.18 | 0.00 | 99 | 1010.2 |
| 20260507002020 | 56 | 15 | 1.0 | 4.0 | 0.00 | 0.18 | 0.00 | 99 | 1010.3 |
| 20260507000910 | 55 | 0 | 0.0 | 0.0 | 0.00 | 0.18 | 0.00 | 99 | 1010.2 |
| 20260507000220 | 55 | 270 | 0.0 | 2.0 | 0.00 | 0.18 | 0.00 | 99 | 1010.3 |
| 20260506235323 | 55 | 360 | 0.0 | 2.0 | 0.00 | 0.18 | 0.00 | 99 | 1010.2 |
| 20260506234420 | 55 | 0 | 0.0 | 0.0 | 0.00 | 0.18 | 0.00 | 99 | 1010.2 |
| 20260506233310 | 56 | 360 | 0.0 | 2.0 | 0.00 | 0.18 | 0.00 | 99 | 1010.1 |
| 20260506232619 | 56 | 20 | 0.0 | 3.0 | 0.00 | 0.18 | 0.00 | 99 | 1010.1 |
| 20260506231722 | 56 | 13 | 2.0 | 4.0 | 0.00 | 0.18 | 0.00 | 99 | 1010.1 |
| 20260506230824 | 56 | 8 | 1.0 | 4.0 | 0.00 | 0.18 | 0.00 | 99 | 1010.1 |
| 20260506225922 | 56 | 2 | 1.0 | 3.0 | 0.00 | 0.18 | 0.00 | 99 | 1010.2 |
| 20260506225024 | 57 | 357 | 0.0 | 3.0 | 0.00 | 0.18 | 0.00 | 99 | 1010.0 |
| 20260506224121 | 56 | 0 | 0.0 | 0.0 | 0.00 | 0.18 | 0.00 | 98 | 1010.1 |
| 20260506223010 | 57 | 0 | 0.0 | 0.0 | 0.00 | 0.18 | 0.00 | 98 | 1010.2 |
| 20260506222321 | 57 | 0 | 0.0 | 0.0 | 0.00 | 0.18 | 0.00 | 98 | 1010.3 |
| 20260506221211 | 57 | 14 | 0.0 | 4.0 | 0.00 | 0.18 | 0.00 | 98 | 1010.1 |
| 20260506220310 | 57 | 16 | 1.0 | 4.0 | 0.00 | 0.18 | 0.00 | 97 | 1010.0 |
| 20260506215623 | 57 | 360 | 1.0 | 4.0 | 0.00 | 0.18 | 0.18 | 98 | 1010.1 |
| 20260506214720 | 57 | 9 | 0.0 | 3.0 | 0.00 | 0.18 | 0.18 | 97 | 1010.1 |
| 20260506213610 | 57 | 358 | 1.0 | 3.0 | 0.00 | 0.18 | 0.18 | 97 | 1010.0 |
| 20260506212920 | 57 | 2 | 0.0 | 4.0 | 0.00 | 0.18 | 0.18 | 97 | 1010.1 |
| 20260506211810 | 58 | 349 | 0.0 | 2.0 | 0.00 | 0.18 | 0.18 | 96 | 1010.1 |
| 20260506211120 | 58 | 45 | 0.0 | 2.0 | 0.00 | 0.18 | 0.18 | 96 | 1010.1 |
| 20260506210222 | 58 | 19 | 0.0 | 4.0 | 0.00 | 0.18 | 0.18 | 96 | 1010.0 |
| 20260506205110 | 58 | 19 | 0.0 | 2.0 | 0.00 | 0.18 | 0.18 | 96 | 1009.8 |
| 20260506204422 | 58 | 30 | 0.0 | 2.0 | 0.00 | 0.18 | 0.18 | 96 | 1010.1 |
| 20260506203310 | 58 | 22 | 1.0 | 3.0 | 0.00 | 0.18 | 0.18 | 95 | 1010.0 |
| 20260506202622 | 58 | 25 | 0.0 | 3.0 | 0.00 | 0.18 | 0.18 | 95 | 1009.9 |
| 20260506201510 | 58 | 20 | 0.0 | 3.0 | 0.00 | 0.18 | 0.18 | 95 | 1009.9 |
| 20260506200610 | 59 | 43 | 0.0 | 2.0 | 0.00 | 0.18 | 0.18 | 95 | 1009.8 |
| 20260506195923 | 59 | 315 | 0.0 | 1.0 | 0.00 | 0.18 | 0.18 | 95 | 1009.8 |
| 20260506194810 | 59 | 0 | 0.0 | 0.0 | 0.00 | 0.18 | 0.18 | 95 | 1009.7 |
| 20260506193910 | 59 | 0 | 0.0 | 0.0 | 0.00 | 0.18 | 0.18 | 94 | 1009.5 |
| 20260506193220 | 59 | 33 | 0.0 | 3.0 | 0.00 | 0.18 | 0.18 | 94 | 1009.5 |
| 20260506192323 | 59 | 13 | 1.0 | 4.0 | 0.00 | 0.18 | 0.18 | 94 | 1009.4 |
| 20260506191210 | 59 | 39 | 2.0 | 4.0 | 0.00 | 0.18 | 0.18 | 94 | 1009.4 |
| 20260506190524 | 59 | 27 | 2.0 | 4.0 | 0.00 | 0.18 | 0.18 | 94 | 1009.3 |
| 20260506185410 | 60 | 9 | 1.0 | 4.0 | 0.00 | 0.18 | 0.18 | 94 | 1009.3 |
| 20260506184722 | 60 | 14 | 0.0 | 4.0 | 0.00 | 0.18 | 0.18 | 94 | 1009.3 |
| 20260506183819 | 60 | 7 | 1.0 | 4.0 | 0.00 | 0.18 | 0.18 | 94 | 1009.1 |
| 20260506182922 | 60 | 2 | 2.0 | 5.0 | 0.00 | 0.18 | 0.18 | 94 | 1009.1 |
| 20260506181811 | 60 | 7 | 1.0 | 4.0 | 0.00 | 0.18 | 0.18 | 94 | 1008.8 |
| 20260506181122 | 60 | 15 | 1.0 | 4.0 | 0.00 | 0.18 | 0.18 | 93 | 1009.1 |
| 20260506180224 | 60 | 4 | 1.0 | 4.0 | 0.00 | 0.18 | 0.18 | 93 | 1008.9 |
| 20260506175321 | 61 | 347 | 0.0 | 3.0 | 0.00 | 0.18 | 0.18 | 93 | 1008.7 |
| 20260506174210 | 61 | 0 | 0.0 | 0.0 | 0.00 | 0.18 | 0.18 | 93 | 1008.7 |
| 20260506173521 | 61 | 0 | 0.0 | 0.0 | 0.00 | 0.18 | 0.18 | 93 | 1008.7 |
| 20260506172411 | 61 | 360 | 0.0 | 1.0 | 0.00 | 0.18 | 0.18 | 92 | 1008.8 |
| 20260506171721 | 61 | 0 | 0.0 | 0.0 | 0.00 | 0.18 | 0.18 | 92 | 1008.6 |
| 20260506170611 | 61 | 97 | 0.0 | 3.0 | 0.00 | 0.18 | 0.18 | 92 | 1008.7 |
| 20260506165710 | 61 | 110 | 0.0 | 4.0 | 0.00 | 0.18 | 0.18 | 92 | 1008.6 |
| 20260506164810 | 61 | 85 | 0.0 | 4.0 | 0.00 | 0.19 | 0.18 | 92 | 1008.6 |
| 20260506163910 | 61 | 101 | 0.0 | 3.0 | 0.00 | 0.19 | 0.18 | 93 | 1008.7 |
| 20260506163222 | 61 | 120 | 0.0 | 3.0 | 0.00 | 0.19 | 0.18 | 93 | 1008.8 |
| 20260506162110 | 61 | 175 | 0.0 | 4.0 | 0.00 | 0.19 | 0.18 | 94 | 1008.9 |
| 20260506161422 | 61 | 0 | 0.0 | 0.0 | 0.00 | 0.19 | 0.18 | 95 | 1008.8 |
| 20260506160310 | 61 | 0 | 0.0 | 0.0 | 0.00 | 0.19 | 0.18 | 95 | 1008.8 |
| 20260506155410 | 60 | 161 | 0.0 | 4.0 | 0.00 | 0.19 | 0.18 | 95 | 1008.7 |
| 20260506154510 | 61 | 208 | 0.0 | 4.0 | 0.00 | 0.19 | 0.18 | 96 | 1008.6 |
| 20260506153821 | 61 | 135 | 0.0 | 2.0 | 0.00 | 0.19 | 0.18 | 96 | 1008.5 |
| 20260506152924 | 60 | 98 | 1.0 | 8.0 | 0.00 | 0.20 | 0.18 | 96 | 1008.6 |
| 20260506152021 | 60 | 96 | 0.0 | 4.0 | 0.00 | 0.21 | 0.18 | 96 | 1008.6 |
| 20260506150910 | 61 | 20 | 1.0 | 3.0 | 0.02 | 0.21 | 0.18 | 96 | 1008.7 |
| 20260506150221 | 61 | 40 | 1.0 | 4.0 | 0.05 | 0.21 | 0.18 | 96 | 1008.7 |
| 20260506145110 | 60 | 31 | 0.0 | 4.0 | 0.07 | 0.21 | 0.18 | 96 | 1008.7 |
| 20260506144210 | 60 | 71 | 0.0 | 4.0 | 0.11 | 0.22 | 0.18 | 95 | 1008.7 |
| 20260506143523 | 60 | 83 | 1.0 | 6.0 | 0.13 | 0.22 | 0.18 | 95 | 1008.6 |
| 20260506142620 | 60 | 88 | 1.0 | 4.0 | 0.15 | 0.22 | 0.18 | 94 | 1008.7 |
| 20260506141510 | 60 | 95 | 1.0 | 5.0 | 0.14 | 0.22 | 0.17 | 92 | 1008.9 |
| 20260506140820 | 61 | 112 | 1.0 | 3.0 | 0.11 | 0.19 | 0.13 | 90 | 1009.1 |
| 20260506135922 | 61 | 124 | 0.0 | 3.0 | 0.11 | 0.19 | 0.13 | 90 | 1009.2 |
| 20260506135019 | 61 | 135 | 0.0 | 2.0 | 0.07 | 0.15 | 0.09 | 88 | 1009.4 |
| 20260506133910 | 62 | 138 | 0.0 | 6.0 | 0.04 | 0.12 | 0.06 | 86 | 1009.4 |
| 20260506133224 | 62 | 149 | 0.0 | 4.0 | 0.01 | 0.09 | 0.04 | 85 | 1009.3 |
| 20260506132322 | 62 | 135 | 1.0 | 6.0 | 0.00 | 0.08 | 0.02 | 83 | 1009.3 |
| 20260506131424 | 63 | 125 | 1.0 | 6.0 | 0.00 | 0.08 | 0.02 | 83 | 1009.4 |
| 20260506130310 | 63 | 152 | 1.0 | 5.0 | 0.00 | 0.08 | 0.02 | 83 | 1009.5 |
| 20260506125410 | 63 | 151 | 2.0 | 12.0 | 0.00 | 0.08 | 0.02 | 82 | 1009.4 |
| 20260506124721 | 63 | 143 | 1.0 | 12.0 | 0.00 | 0.09 | 0.02 | 82 | 1009.5 |
| 20260506123610 | 64 | 153 | 2.0 | 8.0 | 0.00 | 0.11 | 0.02 | 83 | 1009.5 |
| 20260506122921 | 64 | 135 | 2.0 | 7.0 | 0.00 | 0.12 | 0.02 | 86 | 1009.5 |
| 20260506122023 | 63 | 133 | 1.0 | 6.0 | 0.00 | 0.12 | 0.02 | 89 | 1009.5 |
| 20260506120910 | 62 | 180 | 0.0 | 6.0 | 0.01 | 0.13 | 0.02 | 92 | 1009.7 |
| 20260506120223 | 61 | 168 | 1.0 | 4.0 | 0.01 | 0.13 | 0.02 | 91 | 1009.7 |
| 20260506115110 | 62 | 110 | 0.0 | 4.0 | 0.01 | 0.13 | 0.02 | 92 | 1009.9 |
| 20260506114210 | 62 | 96 | 0.0 | 4.0 | 0.01 | 0.13 | 0.02 | 92 | 1009.8 |
| 20260506113520 | 61 | 147 | 0.0 | 2.0 | 0.01 | 0.14 | 0.02 | 93 | 1009.9 |
| 20260506112622 | 61 | 180 | 0.0 | 1.0 | 0.01 | 0.15 | 0.02 | 92 | 1010.0 |
| 20260506111510 | 60 | 225 | 0.0 | 2.0 | 0.01 | 0.17 | 0.02 | 92 | 1010.1 |
| 20260506110610 | 60 | 225 | 0.0 | 3.0 | 0.00 | 0.17 | 0.01 | 91 | 1010.3 |
| 20260506105710 | 60 | 218 | 0.0 | 5.0 | 0.00 | 0.17 | 0.01 | 90 | 1010.3 |
| 20260506105021 | 60 | 192 | 1.0 | 5.0 | 0.01 | 0.17 | 0.01 | 89 | 1010.4 |
| 20260506103910 | 60 | 163 | 0.0 | 3.0 | 0.01 | 0.17 | 0.01 | 89 | 1010.4 |
| 20260506103221 | 60 | 159 | 0.0 | 4.0 | 0.01 | 0.17 | 0.01 | 89 | 1010.4 |
| 20260506102323 | 60 | 152 | 1.0 | 8.0 | 0.01 | 0.17 | 0.01 | 89 | 1010.4 |
| 20260506101421 | 60 | 157 | 2.0 | 7.0 | 0.01 | 0.17 | 0.01 | 90 | 1010.5 |
| 20260506100523 | 61 | 156 | 1.0 | 7.0 | 0.01 | 0.17 | 0.01 | 91 | 1010.5 |
| 20260506095410 | 61 | 165 | 1.0 | 7.0 | 0.00 | 0.15 | 0.00 | 91 | 1010.5 |
| 20260506094723 | 61 | 161 | 1.0 | 7.0 | 0.00 | 0.17 | 0.00 | 91 | 1010.4 |
| 20260506093820 | 62 | 153 | 1.0 | 4.0 | 0.00 | 0.17 | 0.00 | 91 | 1010.5 |
| 20260506092923 | 62 | 156 | 0.0 | 4.0 | 0.00 | 0.17 | 0.00 | 91 | 1010.4 |
| 20260506091810 | 62 | 163 | 0.0 | 5.0 | 0.00 | 0.17 | 0.00 | 91 | 1010.4 |
| 20260506090910 | 62 | 90 | 1.0 | 2.0 | 0.00 | 0.17 | 0.00 | 93 | 1010.3 |
| 20260506090010 | 62 | 90 | 0.0 | 2.0 | 0.00 | 0.17 | 0.00 | 95 | 1010.1 |
| 20260506085322 | 62 | 172 | 0.0 | 4.0 | 0.00 | 0.17 | 0.00 | 96 | 1010.0 |
| 20260506084424 | 62 | 108 | 0.0 | 4.0 | 0.00 | 0.17 | 0.00 | 98 | 1010.0 |
| 20260506083522 | 62 | 111 | 0.0 | 4.0 | 0.00 | 0.17 | 0.00 | 99 | 1010.0 |